WGS F4 (USA 233)

Last updated on Sept. 26, 2020, 5:40 a.m. UTC

1 38070U 12003A   20269.85336701 -.00000238  00000-0  00000-0 0  9990
2 38070   0.0147 175.5879 0000461 308.5089 276.6608  1.00271399 23189
UTC
Height (km)
Latitude
Longitude
Inclination
Orbital Period
UTC large
Height (km)
Speed (km/s)
/
Latitude / Longitude
Inclination (degrees)
Orbital Period (minutes)
Azimuth
Elevation
Range (km)
Doppler Factor
iOS Compass Heading
iOS Angle

Next 30 passes for location: Hong Kong

Rise time Rise Azimuth (degrees) Set time Set Azimuth (degrees) Duration Max altitude (degrees)

No matching passes for this satellites